Big Bear Station Historical Data
Daily Summary for February 21, 2017 Units:  English    Metric   Both
Next Day »
Daily Weekly Monthly Yearly Custom
  High: Low: Average:
Temperature: 46.6 °F 32.5 °F 40.3 °F
Dew Point: 35.9 °F 22.4 °F 30.4 °F
Humidity: 95% 44% 69%
Wind Speed: 8.9mph 0.0mph 1.4mph
Wind Gust: -999.0mph - -
Wind- - WSW
Pressure: 30.38 in 30.23 in -
Precipitation: 0.00 in    
Historical Graphs
 
 
Tabular Data for February 21, 2017
Time Temperature Dew Point Pressure Wind Wind Speed Wind Gust Humidity Rainfall Rate (Hourly)
00:07 40.8 °F 28.8 °F 30.33 in Calm   -999.0 mph 62% 0 in
00:22 40.6 °F 27.8 °F 30.33 in NNE 1.7 mph -999.0 mph 60% 0 in
00:38 40.6 °F 28.6 °F 30.33 in Calm   -999.0 mph 62% 0 in
00:53 40.6 °F 28.2 °F 30.33 in NW 1.7 mph -999.0 mph 61% 0 in
01:08 41.0 °F 27.8 °F 30.33 in NW 6.8 mph -999.0 mph 59% 0 in
01:23 41.7 °F 29.2 °F 30.33 in North 8.9 mph -999.0 mph 61% 0 in
01:39 42.1 °F 30.8 °F 30.33 in SSW 1.7 mph -999.0 mph 64% 0 in
01:54 42.1 °F 31.6 °F 30.33 in NW 1.1 mph -999.0 mph 66% 0 in
02:09 41.9 °F 31.4 °F 30.33 in South 3.7 mph -999.0 mph 66% 0 in
02:24 41.5 °F 29.8 °F 30.32 in NW 2.7 mph -999.0 mph 63% 0 in
02:39 41.5 °F 29.4 °F 30.32 in WNW 3.7 mph -999.0 mph 62% 0 in
02:55 41.0 °F 26.5 °F 30.32 in Calm   -999.0 mph 56% 0 in
03:10 40.8 °F 25.4 °F 30.33 in Calm   -999.0 mph 54% 0 in
03:25 40.3 °F 24.5 °F 30.32 in NW 1.7 mph -999.0 mph 53% 0 in
03:40 40.5 °F 24.7 °F 30.32 in WNW 2.2 mph -999.0 mph 53% 0 in
03:56 40.1 °F 27.3 °F 30.32 in WNW 1.7 mph -999.0 mph 60% 0 in
04:11 39.7 °F 27.7 °F 30.32 in Calm   -999.0 mph 62% 0 in
04:26 39.7 °F 28.1 °F 30.32 in Calm   -999.0 mph 63% 0 in
04:42 39.7 °F 27.7 °F 30.32 in Calm   -999.0 mph 62% 0 in
04:57 39.7 °F 26.9 °F 30.32 in Calm   -999.0 mph 60% 0 in
05:12 39.7 °F 26.9 °F 30.32 in Calm   -999.0 mph 60% 0 in
05:27 39.7 °F 27.7 °F 30.32 in SSW 2.2 mph -999.0 mph 62% 0 in
05:43 39.6 °F 27.6 °F 30.32 in Calm   -999.0 mph 62% 0 in
05:58 39.6 °F 26.9 °F 30.32 in ENE 1.7 mph -999.0 mph 60% 0 in
06:13 40.1 °F 25.2 °F 30.33 in SSE 2.2 mph -999.0 mph 55% 0 in
06:28 40.1 °F 25.7 °F 30.33 in South 2.7 mph -999.0 mph 56% 0 in
06:43 40.5 °F 26.0 °F 30.33 in South 1.7 mph -999.0 mph 56% 0 in
06:59 39.6 °F 23.9 °F 30.33 in Calm   -999.0 mph 53% 0 in
07:14 39.6 °F 23.4 °F 30.33 in Calm   -999.0 mph 52% 0 in
07:29 39.6 °F 25.2 °F 30.33 in SSW 1.1 mph -999.0 mph 56% 0 in
07:44 39.4 °F 25.8 °F 30.34 in SSE 1.1 mph -999.0 mph 58% 0 in
08:00 39.7 °F 24.8 °F 30.34 in ESE 1.7 mph -999.0 mph 55% 0 in
08:15 40.1 °F 25.7 °F 30.34 in SE 1.7 mph -999.0 mph 56% 0 in
08:30 40.8 °F 26.3 °F 30.35 in Calm   -999.0 mph 56% 0 in
08:45 41.2 °F 22.5 °F 30.35 in SSE 1.7 mph -999.0 mph 47% 0 in
09:01 41.5 °F 25.2 °F 30.36 in SSE 3.2 mph -999.0 mph 52% 0 in
09:16 42.1 °F 24.8 °F 30.35 in NW 2.2 mph -999.0 mph 50% 0 in
09:31 42.3 °F 24.5 °F 30.36 in NNW 1.1 mph -999.0 mph 49% 0 in
09:46 43.0 °F 23.6 °F 30.37 in West 5.3 mph -999.0 mph 46% 0 in
10:01 42.8 °F 22.4 °F 30.38 in Calm   -999.0 mph 44% 0 in
10:17 42.3 °F 29.8 °F 30.37 in South 2.7 mph -999.0 mph 61% 0 in
10:32 42.3 °F 31.0 °F 30.36 in South 1.1 mph -999.0 mph 64% 0 in
10:47 43.7 °F 32.7 °F 30.36 in South 1.1 mph -999.0 mph 65% 0 in
11:02 43.7 °F 33.8 °F 30.35 in SSW 5.3 mph -999.0 mph 68% 0 in
11:17 43.5 °F 32.9 °F 30.35 in WSW 2.7 mph -999.0 mph 66% 0 in
11:33 43.5 °F 31.7 °F 30.34 in South 3.7 mph -999.0 mph 63% 0 in
11:48 45.5 °F 34.8 °F 30.34 in Calm   -999.0 mph 66% 0 in
12:03 45.3 °F 33.8 °F 30.33 in NW 1.7 mph -999.0 mph 64% 0 in
12:18 45.9 °F 35.2 °F 30.33 in WNW 2.2 mph -999.0 mph 66% 0 in
12:33 46.0 °F 34.5 °F 30.32 in NW 4.2 mph -999.0 mph 64% 0 in
12:49 45.7 °F 35.0 °F 30.31 in South 3.2 mph -999.0 mph 66% 0 in
13:04 45.1 °F 34.4 °F 30.31 in WNW 2.7 mph -999.0 mph 66% 0 in
13:19 46.6 °F 34.7 °F 30.30 in SSW 2.7 mph -999.0 mph 63% 0 in
13:34 45.0 °F 34.3 °F 30.31 in SSE 3.7 mph -999.0 mph 66% 0 in
14:05 44.1 °F 33.1 °F 30.30 in WNW 1.7 mph -999.0 mph 65% 0 in
14:20 43.3 °F 32.7 °F 30.30 in Calm   -999.0 mph 66% 0 in
14:35 43.9 °F 33.3 °F 30.29 in SW 2.7 mph -999.0 mph 66% 0 in
14:50 44.2 °F 33.6 °F 30.29 in Calm   -999.0 mph 66% 0 in
15:06 45.1 °F 35.2 °F 30.29 in Calm   -999.0 mph 68% 0 in
15:21 45.0 °F 35.8 °F 30.29 in WNW 1.7 mph -999.0 mph 70% 0 in
15:36 45.1 °F 35.9 °F 30.28 in WNW 2.2 mph -999.0 mph 70% 0 in
15:51 44.4 °F 34.9 °F 30.29 in NW 1.7 mph -999.0 mph 69% 0 in
16:07 44.4 °F 34.9 °F 30.28 in NW 2.7 mph -999.0 mph 69% 0 in
16:22 44.2 °F 33.9 °F 30.28 in WNW 1.7 mph -999.0 mph 67% 0 in
16:37 43.9 °F 34.4 °F 30.28 in Calm   -999.0 mph 69% 0 in
16:52 43.3 °F 34.5 °F 30.28 in Calm   -999.0 mph 71% 0 in
17:08 41.9 °F 33.9 °F 30.28 in Calm   -999.0 mph 73% 0 in
17:23 40.6 °F 33.6 °F 30.27 in Calm   -999.0 mph 76% 0 in
17:38 39.7 °F 33.7 °F 30.26 in NNW 1.7 mph -999.0 mph 79% 0 in
17:53 38.7 °F 33.4 °F 30.27 in Calm   -999.0 mph 81% 0 in
18:08 37.6 °F 32.9 °F 30.27 in Calm   -999.0 mph 83% 0 in
18:24 37.2 °F 33.7 °F 30.27 in SSW 1.7 mph -999.0 mph 87% 0 in
18:39 37.0 °F 33.2 °F 30.27 in Calm   -999.0 mph 86% 0 in
18:54 36.5 °F 32.1 °F 30.26 in Calm   -999.0 mph 84% 0 in
19:09 36.0 °F 32.5 °F 30.26 in West 1.1 mph -999.0 mph 87% 0 in
19:24 36.0 °F 32.8 °F 30.26 in Calm   -999.0 mph 88% 0 in
19:40 35.8 °F 32.6 °F 30.26 in Calm   -999.0 mph 88% 0 in
19:55 36.0 °F 33.4 °F 30.26 in Calm   -999.0 mph 90% 0 in
20:10 36.5 °F 33.6 °F 30.26 in SSW 1.1 mph -999.0 mph 89% 0 in
20:25 36.0 °F 33.4 °F 30.26 in SSW 1.7 mph -999.0 mph 90% 0 in
20:40 36.1 °F 33.5 °F 30.26 in NW 3.2 mph -999.0 mph 90% 0 in
20:56 35.6 °F 33.0 °F 30.26 in WNW 1.7 mph -999.0 mph 90% 0 in
21:11 35.6 °F 33.2 °F 30.26 in WNW 1.1 mph -999.0 mph 91% 0 in
21:26 35.4 °F 33.0 °F 30.26 in Calm   -999.0 mph 91% 0 in
21:41 35.1 °F 32.7 °F 30.26 in Calm   -999.0 mph 91% 0 in
21:56 34.7 °F 32.3 °F 30.25 in Calm   -999.0 mph 91% 0 in
22:12 34.0 °F 31.9 °F 30.25 in Calm   -999.0 mph 92% 0 in
22:27 33.8 °F 32.0 °F 30.25 in Calm   -999.0 mph 93% 0 in
22:42 33.8 °F 32.0 °F 30.24 in Calm   -999.0 mph 93% 0 in
22:57 33.3 °F 31.5 °F 30.24 in South 1.7 mph -999.0 mph 93% 0 in
23:13 32.7 °F 30.9 °F 30.24 in Calm   -999.0 mph 93% 0 in
23:28 32.5 °F 30.7 °F 30.24 in Calm   -999.0 mph 93% 0 in
23:43 32.7 °F 31.2 °F 30.23 in South 1.1 mph -999.0 mph 94% 0 in
23:58 32.9 °F 31.6 °F 30.23 in Calm   -999.0 mph 95% 0 in
Big Bear CA Weather